Location: Unspecified
(0.0000°N, 0.0000°E)
Time: 21:01:48
(UTC+00:00)

YAOGAN 20C - Visible Passes

Search period start: 14 January 2025 00:00
Search period end: 24 January 2025 00:00
Orbit: 832 x 1347 km, 63.4° (Epoch: 14 January)

Date Brightness Start Highest point End Pass type
(mag) Time Alt. Az. Time Alt. Az. Time Alt. Az.
21 Jan7.921:10:12SSE21:10:12SSE20:51:12NNWvisible
22 Jan 6.7 20:03:22 10° N 20:19:32 - SE 20:06:01 22° N visible
22 Jan 7.7 22:06:20 16° SSW 22:06:20 16° SSW 22:08:09 10° SSW visible
23 Jan 6.3 19:15:10 10° NNE 19:21:23 24° ENE 19:27:46 10° ESE visible
23 Jan 6.2 21:04:00 10° NW 21:11:48 49° WSW 21:19:48 10° S visible
